Starlink 2081

operational
NORAD ID: 47366 Int'l Des: 2021-005 Owner: SPXS Country: US Constellation: starlink
LEOCIRCULARSTARLINK_TYPE

About Starlink 2081

Description loading...

Live Position

Loading 3D Globe...

Upcoming Passes

Altitude History

Altitude vs Time

uPlot chart will show altitude changes over time

Two-Line Element Set

1 47366U 21005T 25349.46879978 .00003025 00000-0 22186-3 0 9997
2 47366 53.0565 79.7015 0001620 71.7617 288.3549 15.06409925270345
Epoch: Dec 15, 2025 • Age: 27 hours

Current Status

Altitude 557.9 km
Velocity 7.58 km/s
Sub-Earth Point -32.87°S, 108.32°E
Launch Date Jan 20, 2021
Age 4.9 years
Type internet

Technical Details

Classification Payload
Mass 260.00 kg
Dry Mass 248.00 kg
Total Mass 260.00 kg
Length 0.20 m
Diameter 2.80 m
Span 9.00 m
Shape Box + pan
Manufacturer SPXS
Bus Type Starlink
Phase Status In Orbit
Owner/State SPXS/US

Large Constellations

Loading constellations...